SCP
0 0 0 0 0 0 0 0 0 0 0 0 0 0 0 0 0 0 0 0 0 0 0 0 0 0 0 0 0 0 0 0 0 0 0 0 0 0 0 0 0 0 0
0 0 0 0 0 0 0 0 0 0 0 0 0 0 0 0 0 0 0 0 0 0 0 0 0 0 0 0 0 0 0 0 0 0 0 0 0 0 0 0 0 0 0
0 0 0 0 0 0 0 0 0 0 0 0 0 0 0 0 0 0 0 0 0 0 0 0 0 0 0 0 0 0 0 0 0 0 0 0 0 0 0 0 0 0 0
0 0 0 0 0 0 0 0 0 0 0 0 0 0 0 0 0 0 0 0 0 0 0 0 0 0 0 0 0 0 0 0 0 0 0 0 0 0 0 0 0 0 0
0 0 0 0 0 0 0 0 0 0 0 0 0 0 0 0 0 0 0 0 0 0 0 0 0 0 0 0 0 0 0 0 0 0 0 0 0 0 0 0 0 0 0
0 0 0 0 0 0 0 0 0 0 0 0 0 0 0 0 0 0 0 0 0 0 0 0 0 0 0 0 0 0 0 0 0 0 0 0 0 0 0 0 0 0 0
0 0 0 0 0 0 0 0 0 0 0 0 0 0 0 0 0 0 0 0 0 0 0 0 0 0 0 0 0 0 0 0 0 0 0 0 0 0 0 0 0 0 0
0 0 0 0 0 0 0 0 0 0 0 0 0 0 0 0 0 0 0 0 0 0 0 0 0 0 0 0 0 0 0 0 0 0 0 0 0 0 0 0 0 0 0
0 0 0 0 0 0 0 0 0 0 0 0 0 0 0 0 0 0 0 0 0 0 0 0 0 0 0 0 0 0 0 0 0 0 0 0 0 0 0 0 0 0 0
0 0 0 0 0 0 0 0 0 0 0 0 0 0 0 0 0 0 0 0 0 0 0 0 0 0 0 0 0 0 0 0 0 0 0 0 0 0 0 0 0 0 0
-0 0 0 0 0 0 0 0 0 0 0 0 0 0 0 0 0 0 0 0 0 0 0 0 0 0 0 0 0 0 0 0 0 0 0 0 0 0 0 0 0 0 0
0 0 0 0 0 0 0 0 0 0 0 0 0 0 0 0 0 0 0 0 0 0 0 0 0 0 0 0 0 0 0 0 0 0 0 0 0 0 0 0 0 0 0
0 0 0 0 0 0 0 0 0 0 0 0 0 0 0 0 0 0 0 0 0 0 0 0 0 0 0 0 0 0 0 0 0 0 0 0 0 0 0 0 0 0 0
0 0 0 0 0 0 0 0 0 0 0 0 0 0 0 0 0 0 0 0 0 0 0 0 0 0 0 0 0 0 0 0 0 0 0 0 0 0 0 0 0 0 0
0 0 0 0 0 0 0 0 0 0 0 0 0 0 0 0 0 0 0 0 0 0 0 0 0 0 0 0 0 0 0 0 0 0 0 0 0 0 0 0 0 0 0
0 0 0 0 0 0 0 0 0 0 0 0 0 0 0 0 0 0 0 0 0 0 0 0 0 0 0 0 0 0 0 0 0 0 0 0 0 0 0 0 0 0 0
0 0 0 0 0 0 0 0 0 0 0 0 0 0 0 0 0 0 0 0 0 0 0 0 0 0 0 0 0 0 0 0 0 0 0 0 0 0 0 0 0 0 0
0 0 0 0 0 0 0 0 0 0 0 0 0 0 0 0 0 0 0 0 0 0 0 0 0 0 0 0 0 0 0 0 0 0 0 0 0 0 0 0 0 0 0
0 0 0 0 0 0 0 0 0 0 0 0 0 0 0 0 0 0 0 0 0 0 0 0 0 0 0 0 0 0 0 0 0 0 0 0 0 0 0 0 0 0 0
0 0 0 0 0 0 0 0 0 0 0 0 0 0 0 0 0 0 0 0 0 0 0 0 0 0 0 0 0 0 0 0 0 0 0 0 0 0 0 0 0 0 0
0 0 0 0 0 0 0 0 0 0 0 0 0 0 0 0 0 0 0 0 0 0 0 0 0 0 0 0 0 0 0 0 0 0 0 0 0 0 0 0 0 0 0
0 0 0 0 0 0 0 0 0 0 0 0 0 0 0 0 0 0 0 0 0 0 0 0 0 0 0 0 0 0 0 0 0 0 0 0 0 0 0 0 0 0 0
0 0 0 0 0 0 0 0 0 0 0 0 0 0 0 0 0 0 0 0 0 0 0 0 0 0 0 0 0 0 0 0 0 0 0 0 0 0 0 0 0 0 0
0 0 0 0 0 0 0 0 0 0 0 0 0 0 0 0 0 0 0 0 0 0 0 0 0 0 0 0 0 0 0 0 0 0 0 0 0 0 0 0 0 0 0
0 0 0 0 0 0 0 0 0 0 0 0 0 0 0 0 0 0 0 0 0 0 0 0 0 0 0 0 0 0 0 0 0 0 0 0 0 0 0 0 0 0 0
0 0 0 0 0 0 0 0 0 0 0 0 0 0 0 0 0 0 0 0 0 0 0 0 0 0 0 0 0 0 0 0 0 0 0 0 0 0 0 0 0 0 0
Wind_Speed_500mb
81 86 84 93 95 96 98 94 93 91 85 81 80 78 79 73 70 65 60 57 54 52 49 45 44 41 38 36 35 35 35 34 35 35 35 30 30 30 27 26 26 24 22
69 80 79 74 92 98 101 98 97 95 91 89 86 84 81 75 72 66 64 60 58 56 51 48 45 42 40 39 38 37 36 35 33 31 33 16 17 20 21 22 21 20 20
71 60 55 69 79 95 101 103 100 97 94 92 90 88 78 73 73 72 68 65 62 59 54 52 48 45 43 42 41 39 38 37 35 32 23 12 10 8 12 17 19 20 21
77 85 85 75 74 95 99 105 103 100 97 97 97 95 90 88 86 80 72 67 63 59 56 54 51 48 46 44 42 41 41 40 36 33 31 31 33 15 9 17 22 25 26
82 82 87 88 76 83 105 106 106 105 101 98 99 95 92 86 80 77 72 69 64 61 57 55 51 49 46 43 43 42 40 40 38 33 31 30 31 33 32 18 24 29 31
83 90 80 81 79 79 98 106 107 108 105 100 101 99 94 87 82 77 75 72 68 63 61 56 51 48 45 43 43 42 39 38 38 35 31 32 29 27 33 34 33 30 32
76 81 86 90 90 89 93 105 109 109 106 102 102 98 92 84 77 74 73 72 70 69 63 56 51 45 43 43 42 40 38 36 36 35 33 34 36 36 35 33 35 39 38
63 68 76 81 86 95 97 100 105 108 108 102 98 91 86 80 74 70 68 67 68 63 56 52 48 46 44 42 41 39 37 35 35 36 36 37 39 40 42 44 39 34 36
58 72 73 72 83 85 91 98 101 109 107 102 94 89 84 78 73 68 64 61 58 55 54 52 49 46 44 42 41 39 38 37 36 36 38 40 39 37 37 39 38 36 22
56 61 67 70 74 75 75 76 92 106 105 97 87 83 82 77 70 64 63 60 58 58 56 53 49 48 45 43 42 41 40 40 41 39 38 39 38 37 37 37 36 36 39
37 39 42 47 54 60 62 68 80 92 94 86 79 77 76 69 65 63 60 58 56 55 53 52 50 48 45 44 43 42 42 44 44 42 42 42 40 39 38 40 39 39 41
17 17 22 28 37 44 48 56 69 77 76 72 70 69 63 61 60 60 59 55 53 53 52 51 50 48 47 46 44 44 46 47 47 46 47 45 41 42 39 41 40 38 41
11 12 16 22 30 37 44 55 59 58 61 63 61 58 56 57 57 56 54 52 52 53 53 52 51 48 47 46 45 44 44 43 43 41 41 38 36 39 38 39 39 38 39
14 13 15 23 31 39 45 47 51 53 56 56 56 54 52 52 52 52 51 50 51 52 52 50 49 48 47 46 45 43 42 40 38 37 39 37 37 38 36 37 39 38 41
13 14 25 32 37 43 45 44 47 51 51 52 50 50 47 47 49 49 47 46 46 47 48 48 50 48 45 44 42 42 39 38 37 35 36 37 37 37 38 39 41 40 42
18 23 29 35 39 37 40 42 44 46 45 44 43 42 42 42 41 41 43 44 44 46 48 49 49 45 44 40 38 38 37 36 37 35 33 33 34 36 38 36 41 46 46
24 29 35 38 39 38 36 37 38 39 41 41 41 39 37 34 33 36 39 40 42 43 45 46 48 46 42 41 40 39 39 39 37 34 32 33 35 35 37 38 42 42 46
25 33 33 32 35 38 38 36 36 32 31 30 31 29 28 31 34 35 36 37 38 42 44 45 45 45 43 42 42 41 42 44 42 40 36 35 36 37 39 41 47 50 51
13 23 32 36 38 36 37 40 42 39 36 32 28 27 27 28 30 30 33 36 37 37 38 40 40 41 40 41 42 43 45 46 46 44 40 39 40 39 37 38 45 46 51
7 15 26 30 33 38 37 35 32 25 21 22 25 23 24 27 28 30 32 34 35 35 35 35 36 37 37 36 36 35 39 42 43 41 39 36 36 33 35 40 46 52 53
6 13 23 31 33 32 29 26 24 24 26 26 21 20 20 20 23 23 25 25 25 25 26 26 28 29 30 28 31 32 36 39 38 38 37 36 33 33 34 33 42 49 45
12 14 24 28 27 24 24 23 22 19 17 14 13 17 19 22 20 19 19 19 19 20 21 20 23 24 23 22 24 27 28 31 35 36 34 34 35 36 36 39 46 46 41
11 7 10 16 19 20 18 17 17 17 15 16 19 21 21 19 15 15 16 15 13 14 13 14 16 18 18 19 20 19 19 23 28 28 29 26 25 26 31 33 36 37 43
8 3 5 8 10 12 13 14 13 14 14 15 19 20 19 18 18 18 15 13 11 8 8 8 8 9 10 10 13 17 23 27 28 28 27 28 30 31 34 35 40 45 47
8 2 1 4 6 8 9 12 14 14 16 19 18 17 16 16 16 15 11 10 9 8 8 7 6 5 6 9 9 11 12 14 16 23 24 24 23 22 23 25 27 33 43
11 8 5 4 5 6 8 11 12 13 13 13 11 10 8 8 8 8 10 10 9 8 8 9 8 9 8 10 13 15 15 16 21 25 23 22 23 25 25 26 25 24 23
Wind_Direction_500mb
252 252 246 238 235 234 231 230 228 228 224 224 222 222 223 222 224 224 225 227 230 232 232 233 237 241 246 253 260 268 275 282 288 293 292 290 284 276 271 267 268 268 264
257 255 249 241 235 233 230 227 228 229 227 226 226 225 225 224 226 226 226 226 228 230 232 235 238 243 249 256 262 267 273 278 282 283 292 291 281 265 261 262 260 254 255
244 250 243 239 238 231 227 229 228 228 227 227 224 225 225 227 225 224 226 227 227 228 230 234 237 242 249 256 261 267 273 276 278 277 265 270 252 280 259 253 249 242 251
249 249 254 253 242 231 229 229 231 229 226 225 223 225 226 223 225 227 228 227 228 229 231 234 238 242 248 255 261 266 272 273 271 267 263 252 252 260 267 246 239 241 250
253 250 247 249 243 234 229 229 229 228 227 226 225 225 226 229 231 229 228 229 229 230 232 236 239 242 249 253 260 266 268 269 267 261 258 255 250 248 247 259 247 246 246
254 252 248 248 247 237 230 230 228 226 225 225 224 224 226 227 225 227 226 227 228 230 233 235 237 243 248 256 260 261 261 263 263 260 254 251 246 248 245 246 249 252 248
251 251 252 249 245 242 233 228 225 222 222 221 224 224 227 228 228 228 228 227 227 229 231 234 239 243 251 255 257 256 256 256 258 258 255 249 245 244 246 248 252 248 246
247 251 255 256 254 248 242 232 226 222 222 222 224 225 226 227 228 230 230 231 233 234 234 236 237 244 249 252 253 253 254 252 253 256 258 253 246 242 241 243 244 253 247
258 258 261 258 253 251 245 238 230 224 220 220 221 221 223 224 225 228 229 228 228 229 229 233 241 245 247 248 249 250 251 254 254 258 259 253 248 244 244 241 236 237 251
277 271 265 258 253 247 243 235 231 225 216 217 219 218 217 220 222 225 220 217 219 222 231 238 243 243 244 245 248 251 254 255 257 258 256 251 248 245 244 243 237 233 241
283 275 266 250 239 238 234 227 223 216 211 213 213 211 211 215 216 216 217 218 221 228 235 241 242 242 244 246 249 252 254 255 258 259 260 252 247 245 243 245 242 238 236
279 265 252 240 230 224 219 215 210 204 206 205 203 203 207 210 213 215 215 218 224 231 235 238 241 244 247 249 252 255 256 256 257 260 256 250 246 245 243 244 244 242 243
244 217 219 213 213 210 204 195 193 193 190 192 196 200 204 209 211 215 219 223 227 231 234 237 241 245 249 252 254 254 252 251 251 250 250 249 242 243 240 242 243 245 249
227 189 191 194 185 179 177 177 177 182 188 191 195 200 204 209 214 218 221 225 227 231 235 239 242 245 246 250 251 248 247 248 249 248 248 245 243 245 242 240 243 243 244
232 176 177 176 169 170 173 177 181 183 188 191 195 197 204 213 218 221 224 229 233 236 238 240 241 242 245 249 249 248 247 250 250 247 247 245 242 244 243 241 245 243 240
236 195 188 182 183 186 179 182 186 187 191 195 200 203 207 215 221 228 231 234 238 239 239 239 241 244 245 247 248 249 249 248 249 248 247 246 244 243 240 242 247 243 238
264 221 204 196 190 187 189 188 192 193 194 196 199 201 205 213 221 227 231 233 236 238 239 241 242 244 245 246 247 247 249 248 248 249 247 245 246 245 243 239 240 243 240
278 236 223 214 202 196 193 192 190 188 189 192 197 199 207 219 224 228 232 234 236 239 239 240 244 246 246 245 245 246 248 251 252 250 250 250 251 249 246 246 244 237 238
281 241 226 218 208 203 196 190 189 184 189 198 206 211 214 219 226 234 239 240 240 242 244 244 245 248 250 250 248 247 247 251 253 255 255 256 256 255 257 251 243 237 238
312 232 207 203 192 186 187 187 191 190 197 206 210 212 217 221 226 229 235 238 241 242 244 247 248 250 251 251 250 246 249 253 256 259 261 261 265 268 265 252 250 249 249
52 172 180 181 182 184 186 189 187 191 200 209 209 209 216 222 226 228 232 237 241 245 248 250 251 252 254 251 248 242 241 249 254 258 260 260 259 260 264 261 263 263 271
69 142 163 171 176 184 189 192 199 204 198 196 210 218 218 224 224 226 232 235 240 246 250 254 259 259 255 254 250 247 243 246 253 257 262 264 260 256 251 250 248 250 256
59 117 166 172 174 180 189 195 188 187 189 207 213 217 216 220 216 221 225 228 233 241 250 254 253 257 255 251 246 239 229 230 240 252 258 263 258 251 248 247 249 252 251
31 70 162 182 188 187 189 185 191 199 202 205 210 207 200 201 202 208 212 211 213 219 233 246 251 253 252 263 262 248 236 240 245 250 255 260 263 264 264 258 249 243 245
358 10 165 164 171 173 180 211 209 200 200 202 202 198 193 191 189 194 187 196 195 193 196 208 211 226 239 257 263 258 258 260 266 264 267 268 270 274 274 271 266 257 248
343 334 312 280 266 229 205 201 199 200 197 185 176 179 184 185 191 187 193 193 194 202 213 221 234 245 248 263 269 273 271 267 275 273 270 269 266 269 268 267 271 272 260
Wind_Speed_850mb
81 86 84 93 95 96 98 94 93 91 85 81 80 78 79 73 70 65 60 57 54 52 49 45 44 41 38 36 35 35 35 34 35 35 35 30 30 30 27 26 26 24 22
69 80 79 74 92 98 101 98 97 95 91 89 86 84 81 75 72 66 64 60 58 56 51 48 45 42 40 39 38 37 36 35 33 31 33 16 17 20 21 22 21 20 20
71 60 55 69 79 95 101 103 100 97 94 92 90 88 78 73 73 72 68 65 62 59 54 52 48 45 43 42 41 39 38 37 35 32 23 12 10 8 12 17 19 20 21
77 85 85 75 74 95 99 105 103 100 97 97 97 95 90 88 86 80 72 67 63 59 56 54 51 48 46 44 42 41 41 40 36 33 31 31 33 15 9 17 22 25 26
82 82 87 88 76 83 105 106 106 105 101 98 99 95 92 86 80 77 72 69 64 61 57 55 51 49 46 43 43 42 40 40 38 33 31 30 31 33 32 18 24 29 31
83 90 80 81 79 79 98 106 107 108 105 100 101 99 94 87 82 77 75 72 68 63 61 56 51 48 45 43 43 42 39 38 38 35 31 32 29 27 33 34 33 30 32
76 81 86 90 90 89 93 105 109 109 106 102 102 98 92 84 77 74 73 72 70 69 63 56 51 45 43 43 42 40 38 36 36 35 33 34 36 36 35 33 35 39 38
63 68 76 81 86 95 97 100 105 108 108 102 98 91 86 80 74 70 68 67 68 63 56 52 48 46 44 42 41 39 37 35 35 36 36 37 39 40 42 44 39 34 36
58 72 73 72 83 85 91 98 101 109 107 102 94 89 84 78 73 68 64 61 58 55 54 52 49 46 44 42 41 39 38 37 36 36 38 40 39 37 37 39 38 36 22
56 61 67 70 74 75 75 76 92 106 105 97 87 83 82 77 70 64 63 60 58 58 56 53 49 48 45 43 42 41 40 40 41 39 38 39 38 37 37 37 36 36 39
37 39 42 47 54 60 62 68 80 92 94 86 79 77 76 69 65 63 60 58 56 55 53 52 50 48 45 44 43 42 42 44 44 42 42 42 40 39 38 40 39 39 41
17 17 22 28 37 44 48 56 69 77 76 72 70 69 63 61 60 60 59 55 53 53 52 51 50 48 47 46 44 44 46 47 47 46 47 45 41 42 39 41 40 38 41
11 12 16 22 30 37 44 55 59 58 61 63 61 58 56 57 57 56 54 52 52 53 53 52 51 48 47 46 45 44 44 43 43 41 41 38 36 39 38 39 39 38 39
14 13 15 23 31 39 45 47 51 53 56 56 56 54 52 52 52 52 51 50 51 52 52 50 49 48 47 46 45 43 42 40 38 37 39 37 37 38 36 37 39 38 41
13 14 25 32 37 43 45 44 47 51 51 52 50 50 47 47 49 49 47 46 46 47 48 48 50 48 45 44 42 42 39 38 37 35 36 37 37 37 38 39 41 40 42
18 23 29 35 39 37 40 42 44 46 45 44 43 42 42 42 41 41 43 44 44 46 48 49 49 45 44 40 38 38 37 36 37 35 33 33 34 36 38 36 41 46 46
24 29 35 38 39 38 36 37 38 39 41 41 41 39 37 34 33 36 39 40 42 43 45 46 48 46 42 41 40 39 39 39 37 34 32 33 35 35 37 38 42 42 46
25 33 33 32 35 38 38 36 36 32 31 30 31 29 28 31 34 35 36 37 38 42 44 45 45 45 43 42 42 41 42 44 42 40 36 35 36 37 39 41 47 50 51
13 23 32 36 38 36 37 40 42 39 36 32 28 27 27 28 30 30 33 36 37 37 38 40 40 41 40 41 42 43 45 46 46 44 40 39 40 39 37 38 45 46 51
7 15 26 30 33 38 37 35 32 25 21 22 25 23 24 27 28 30 32 34 35 35 35 35 36 37 37 36 36 35 39 42 43 41 39 36 36 33 35 40 46 52 53
6 13 23 31 33 32 29 26 24 24 26 26 21 20 20 20 23 23 25 25 25 25 26 26 28 29 30 28 31 32 36 39 38 38 37 36 33 33 34 33 42 49 45
12 14 24 28 27 24 24 23 22 19 17 14 13 17 19 22 20 19 19 19 19 20 21 20 23 24 23 22 24 27 28 31 35 36 34 34 35 36 36 39 46 46 41
11 7 10 16 19 20 18 17 17 17 15 16 19 21 21 19 15 15 16 15 13 14 13 14 16 18 18 19 20 19 19 23 28 28 29 26 25 26 31 33 36 37 43
8 3 5 8 10 12 13 14 13 14 14 15 19 20 19 18 18 18 15 13 11 8 8 8 8 9 10 10 13 17 23 27 28 28 27 28 30 31 34 35 40 45 47
8 2 1 4 6 8 9 12 14 14 16 19 18 17 16 16 16 15 11 10 9 8 8 7 6 5 6 9 9 11 12 14 16 23 24 24 23 22 23 25 27 33 43
11 8 5 4 5 6 8 11 12 13 13 13 11 10 8 8 8 8 10 10 9 8 8 9 8 9 8 10 13 15 15 16 21 25 23 22 23 25 25 26 25 24 23
Wind_Direction_850mb
252 252 246 238 235 234 231 230 228 228 224 224 222 222 223 222 224 224 225 227 230 232 232 233 237 241 246 253 260 268 275 282 288 293 292 290 284 276 271 267 268 268 264
257 255 249 241 235 233 230 227 228 229 227 226 226 225 225 224 226 226 226 226 228 230 232 235 238 243 249 256 262 267 273 278 282 283 292 291 281 265 261 262 260 254 255
244 250 243 239 238 231 227 229 228 228 227 227 224 225 225 227 225 224 226 227 227 228 230 234 237 242 249 256 261 267 273 276 278 277 265 270 252 280 259 253 249 242 251
249 249 254 253 242 231 229 229 231 229 226 225 223 225 226 223 225 227 228 227 228 229 231 234 238 242 248 255 261 266 272 273 271 267 263 252 252 260 267 246 239 241 250
253 250 247 249 243 234 229 229 229 228 227 226 225 225 226 229 231 229 228 229 229 230 232 236 239 242 249 253 260 266 268 269 267 261 258 255 250 248 247 259 247 246 246
254 252 248 248 247 237 230 230 228 226 225 225 224 224 226 227 225 227 226 227 228 230 233 235 237 243 248 256 260 261 261 263 263 260 254 251 246 248 245 246 249 252 248
251 251 252 249 245 242 233 228 225 222 222 221 224 224 227 228 228 228 228 227 227 229 231 234 239 243 251 255 257 256 256 256 258 258 255 249 245 244 246 248 252 248 246
247 251 255 256 254 248 242 232 226 222 222 222 224 225 226 227 228 230 230 231 233 234 234 236 237 244 249 252 253 253 254 252 253 256 258 253 246 242 241 243 244 253 247
258 258 261 258 253 251 245 238 230 224 220 220 221 221 223 224 225 228 229 228 228 229 229 233 241 245 247 248 249 250 251 254 254 258 259 253 248 244 244 241 236 237 251
277 271 265 258 253 247 243 235 231 225 216 217 219 218 217 220 222 225 220 217 219 222 231 238 243 243 244 245 248 251 254 255 257 258 256 251 248 245 244 243 237 233 241
283 275 266 250 239 238 234 227 223 216 211 213 213 211 211 215 216 216 217 218 221 228 235 241 242 242 244 246 249 252 254 255 258 259 260 252 247 245 243 245 242 238 236
279 265 252 240 230 224 219 215 210 204 206 205 203 203 207 210 213 215 215 218 224 231 235 238 241 244 247 249 252 255 256 256 257 260 256 250 246 245 243 244 244 242 243
244 217 219 213 213 210 204 195 193 193 190 192 196 200 204 209 211 215 219 223 227 231 234 237 241 245 249 252 254 254 252 251 251 250 250 249 242 243 240 242 243 245 249
227 189 191 194 185 179 177 177 177 182 188 191 195 200 204 209 214 218 221 225 227 231 235 239 242 245 246 250 251 248 247 248 249 248 248 245 243 245 242 240 243 243 244
232 176 177 176 169 170 173 177 181 183 188 191 195 197 204 213 218 221 224 229 233 236 238 240 241 242 245 249 249 248 247 250 250 247 247 245 242 244 243 241 245 243 240
236 195 188 182 183 186 179 182 186 187 191 195 200 203 207 215 221 228 231 234 238 239 239 239 241 244 245 247 248 249 249 248 249 248 247 246 244 243 240 242 247 243 238
264 221 204 196 190 187 189 188 192 193 194 196 199 201 205 213 221 227 231 233 236 238 239 241 242 244 245 246 247 247 249 248 248 249 247 245 246 245 243 239 240 243 240
278 236 223 214 202 196 193 192 190 188 189 192 197 199 207 219 224 228 232 234 236 239 239 240 244 246 246 245 245 246 248 251 252 250 250 250 251 249 246 246 244 237 238
281 241 226 218 208 203 196 190 189 184 189 198 206 211 214 219 226 234 239 240 240 242 244 244 245 248 250 250 248 247 247 251 253 255 255 256 256 255 257 251 243 237 238
312 232 207 203 192 186 187 187 191 190 197 206 210 212 217 221 226 229 235 238 241 242 244 247 248 250 251 251 250 246 249 253 256 259 261 261 265 268 265 252 250 249 249
52 172 180 181 182 184 186 189 187 191 200 209 209 209 216 222 226 228 232 237 241 245 248 250 251 252 254 251 248 242 241 249 254 258 260 260 259 260 264 261 263 263 271
69 142 163 171 176 184 189 192 199 204 198 196 210 218 218 224 224 226 232 235 240 246 250 254 259 259 255 254 250 247 243 246 253 257 262 264 260 256 251 250 248 250 256
59 117 166 172 174 180 189 195 188 187 189 207 213 217 216 220 216 221 225 228 233 241 250 254 253 257 255 251 246 239 229 230 240 252 258 263 258 251 248 247 249 252 251
31 70 162 182 188 187 189 185 191 199 202 205 210 207 200 201 202 208 212 211 213 219 233 246 251 253 252 263 262 248 236 240 245 250 255 260 263 264 264 258 249 243 245
358 10 165 164 171 173 180 211 209 200 200 202 202 198 193 191 189 194 187 196 195 193 196 208 211 226 239 257 263 258 258 260 266 264 267 268 270 274 274 271 266 257 248
343 334 312 280 266 229 205 201 199 200 197 185 176 179 184 185 191 187 193 193 194 202 213 221 234 245 248 263 269 273 271 267 275 273 270 269 266 269 268 267 271 272 260